Powrót do katalogu

MAQSAT H

AktywnyNaukaHEO
NORAD 25023·PAYLOAD·🇪🇺 EU

Wystrzelony Oct 30, 1997 z Guiana Space Centre

Loading…

Następne Przeloty (najbliższe 24 godziny)

TLE

ŚwieżeSource: Space-Track

Epoka: Sep 14, 2026, 14:14 UTC

1 25023U 97066A   26257.59338775  .00000236  00000-0  19635-2 0  9996
2 25023   7.8240 285.5239 6505176 260.0486  19.5264  3.10991381326682

Śledź MAQSAT H w czasie rzeczywistym z AllMySat

Download on the App Store